Regional Weather Roundup
Issued by NWS

Home | Current Version | Previous Version | Graphics & Text | Print | Product List | Glossary On
Versions: 1 2 3 4 5 6 7 8 9 10 11 12 13 14 15 16 17 18 19 20 21 22 23 24 25 26 27 28 29 30 31 32 33 34 35 36 37 38 39 40 41 42 43 44 45 46 47 48 49 50
000
ASUS43 KOAX 201602
RWRNE

WEATHER ROUNDUP FOR NEBRASKA
NATIONAL WEATHER SERVICE OMAHA NE
1000 AM CST MON FEB 20 2017

NOTES: SATELLITE DATA IS BEING USED TO AUGMENT CLOUD COVER ABOVE
       12000 FEET.
       "FAIR" INDICATES FEW OR NO CLOUDS BELOW 12,000 FEET WITH NO
       SIGNIFICANT WEATHER AND/OR OBSTRUCTIONS TO VISIBILITY.

  * THESE STATIONS DO NOT REPORT WEATHER SUCH AS RAIN...SNOW OR FOG.

NEZ001>004-019>022-054>056-201700-
NEBRASKA PANHANDLE

CITY           SKY/WX    TMP DP  RH WIND       PRES   REMARKS
SCOTTSBLUFF    SUNNY     44  22  41 W14       29.94R
ALLIANCE       SUNNY     47  27  45 NW18G26   29.88R
CHADRON        SUNNY     46  30  53 W14       29.90R
KIMBALL        SUNNY     48  24  39 NW24G31   29.93S
SIDNEY         SUNNY     47  22  37 NW26G38   29.93R
$$

NEZ057>060-069>072-079>082-201700-
SOUTHWEST NEBRASKA

CITY           SKY/WX    TMP DP  RH WIND       PRES   REMARKS
NORTH PLATTE   CLOUDY    51  37  58 NW18G25   29.83R
IMPERIAL       SUNNY     50  20  30 NW30G39   29.88R
LEXINGTON      SUNNY     54  31  42 NW24G31   29.77R
MCCOOK         SUNNY     54  29  38 NW30G40   29.82R
OGALLALA       PTSUNNY   49  32  50 NW21G29   29.88R
$$

NEZ005>010-023>029-035>040-094-201700-
NORTH CENTRAL NEBRASKA

CITY           SKY/WX    TMP DP  RH WIND       PRES   REMARKS
VALENTINE      CLOUDY    49  36  61 NW16G29   29.78R
AINSWORTH      LGT RAIN  47  42  81 NW25G36   29.78R
BROKEN BOW     MOSUNNY   53  40  61 NW21G33   29.76R
O`NEILL        PTSUNNY   53  43  69 W15G22    29.71R
ORD            CLOUDY    53  42  66 NW10      29.71R
THEDFORD       CLOUDY    48  38  68 NW16G23   29.81R
$$

NEZ041-046>049-061>064-073>077-083>087-201700-
SOUTH CENTRAL NEBRASKA

CITY           SKY/WX    TMP DP  RH WIND       PRES   REMARKS
GRAND ISLAND   CLOUDY    57  54  89 SW16      29.73R
AURORA         CLOUDY    57  55  95 S14       29.71S
HASTINGS       CLOUDY    56  53  90 SW10      29.75R
HEBRON         CLOUDY    59  56  88 S13G20    29.76S
HOLDREGE       CLOUDY    53  36  52 NW10      29.77R
KEARNEY *      CLOUDY    54  43  66 W14       29.75R
YORK           CLOUDY    57  57 100 S17       29.73R
$$

NEZ011>018-030>034-042>045-201700-
NORTHEAST NEBRASKA

CITY           SKY/WX    TMP DP  RH WIND       PRES   REMARKS
NORFOLK        PTSUNNY   58  54  86 S12       29.69R
ALBION         CLOUDY    58  53  84 SW9       29.70S HAZE
BLAIR          LGT RAIN  59  57  95 S14       29.73S
FREMONT        CLOUDY    59  57  94 S15G21    29.71F
TEKAMAH        CLOUDY    59  56  89 S14       29.71F
WAYNE          CLOUDY    57  57  99 S7        29.69S FOG
$$

NEZ050>053-065>068-078-088>093-201700-
SOUTHEAST NEBRASKA

CITY           SKY/WX    TMP DP  RH WIND       PRES   REMARKS
LINCOLN        CLOUDY    59  57  93 S17       29.75R
OMAHA EPPLEY   LGT RAIN  58  55  90 S13       29.74F FOG
BEATRICE       CLOUDY    59  57  96 S14       29.76R
FALLS CITY     CLOUDY    59  56  89 S14       29.78S
NEBRASKA CITY  LGT RAIN  58  58 100 S13       29.76F
PLATTSMOUTH    LGT RAIN  58  55  92 SE5       29.76S
$$

NEZ044-045-051>053-067-201700-
OMAHA AREA

CITY           SKY/WX    TMP DP  RH WIND       PRES   REMARKS
OMAHA EPPLEY   LGT RAIN  58  55  90 S13       29.74F FOG
BLAIR          LGT RAIN  59  57  95 S14       29.73S
FREMONT        CLOUDY    59  57  94 S15G21    29.71F
MILLARD        DRIZZLE   60  59  96 SE9       29.75S
PLATTSMOUTH    LGT RAIN  58  55  92 SE5       29.76S
WAHOO          CLOUDY    59  57  94 S16       29.72F
$$



USA.gov is the U.S. government's official web portal to all federal, state and local government web resources and services.